DW0148 Weather Reports


Display with metric or nautical units.
time (UTC)temp
F
wind
direction
speed
MPH
gust
MPH
rain 1hr
in
rain 24hr
in
rain mn
in
humidity
%
barometer
mb
20180923233836 71 354 0.0 0.0 0.00 0.00 0.00 92 1017.8
20180923233335 71 358 0.0 0.0 0.00 0.00 0.00 92 1017.8
20180923232834 71 354 0.0 0.0 0.00 0.00 0.00 92 1017.8
20180923232333 71 354 0.0 0.0 0.00 0.00 0.00 92 1017.8
20180923231832 71 354 0.0 1.0 0.00 0.00 0.00 92 1017.8
20180923231331 71 354 0.0 1.0 0.00 0.00 0.00 92 1017.8
20180923230830 71 354 0.0 1.0 0.00 0.00 0.00 92 1017.8
20180923230329 71 355 0.0 1.0 0.00 0.00 0.00 92 1017.8
20180923225828 71 356 0.0 1.0 0.00 0.00 0.00 91 1017.8
20180923225328 71 355 1.0 1.0 0.00 0.00 0.00 91 1017.8
20180923224827 72 355 0.0 3.0 0.00 0.00 0.00 91 1017.8
20180923224325 72 354 1.0 3.0 0.00 0.00 0.00 92 1017.8
20180923223825 72 16 1.0 1.0 0.00 0.00 0.00 92 1017.8
20180923223324 72 31 0.0 1.0 0.00 0.00 0.00 91 1017.8
20180923222823 72 32 0.0 1.0 0.00 0.00 0.00 91 1017.8
20180923222254 72 311 1.0 1.0 0.00 0.00 0.00 91 1017.8
20180923221754 72 329 1.0 1.0 0.00 0.00 0.00 91 1017.8
20180923221253 72 239 1.0 5.0 0.00 0.00 0.00 91 1017.8
20180923220751 72 239 1.0 6.0 0.00 0.00 0.00 90 1017.8
20180923220250 72 244 1.0 6.0 0.00 0.00 0.00 90 1017.8
20180923215749 73 4 2.0 8.0 0.00 0.00 0.00 89 1017.8
20180923215248 73 358 5.0 8.0 0.00 0.00 0.00 86 1017.8
20180923214748 74 15 2.0 4.0 0.00 0.00 0.00 85 1017.8
20180923214247 74 13 1.0 4.0 0.00 0.00 0.00 83 1018.1
20180923213745 74 65 1.0 3.0 0.00 0.00 0.00 82 1018.1
20180923213245 75 18 2.0 3.0 0.00 0.00 0.00 83 1018.1
20180923212743 75 252 1.0 4.0 0.00 0.00 0.00 81 1018.1
20180923212243 75 313 1.0 4.0 0.00 0.00 0.00 80 1018.1
20180923211741 76 163 1.0 2.0 0.00 0.00 0.00 80 1018.1
20180923211240 76 278 0.0 3.0 0.00 0.00 0.00 82 1018.1
20180923210705 76 202 1.0 3.0 0.00 0.00 0.00 82 1018.1
20180923210204 77 139 1.0 2.0 0.00 0.00 0.00 81 1017.8
20180923205703 77 119 0.0 4.0 0.00 0.00 0.00 82 1017.8
20180923205202 77 259 1.0 4.0 0.00 0.00 0.00 82 1017.4
20180923204658 77 7 1.0 6.0 0.00 0.00 0.00 82 1017.4
20180923204157 77 339 2.0 6.0 0.00 0.00 0.00 82 1017.4
20180923203656 77 353 2.0 9.0 0.00 0.00 0.00 82 1017.4
20180923203155 77 343 2.0 9.0 0.00 0.00 0.00 81 1017.4
20180923202654 77 349 3.0 6.0 0.00 0.00 0.00 81 1017.4
20180923202153 78 355 3.0 6.0 0.00 0.00 0.00 80 1017.4
20180923201652 78 352 3.0 6.0 0.00 0.00 0.00 80 1017.4
20180923201149 78 9 2.0 4.0 0.00 0.00 0.00 80 1017.4
20180923200648 78 350 2.0 7.0 0.00 0.00 0.00 79 1017.4
20180923200148 78 344 2.0 7.0 0.00 0.00 0.00 79 1017.8
20180923195646 78 2 2.0 8.0 0.00 0.00 0.00 78 1017.8
20180923195145 79 337 4.0 8.0 0.00 0.00 0.00 77 1017.8
20180923194644 79 354 4.0 8.0 0.00 0.00 0.00 77 1017.8
20180923194142 80 339 2.0 6.0 0.00 0.00 0.00 76 1017.8
20180923193641 80 354 2.0 8.0 0.00 0.00 0.00 76 1017.8
20180923193140 80 350 2.0 8.0 0.00 0.00 0.00 76 1017.8
20180923192639 81 354 4.0 8.0 0.00 0.00 0.00 74 1017.8
20180923192138 81 352 5.0 8.0 0.00 0.00 0.00 72 1017.8
20180923191637 82 336 2.0 5.0 0.00 0.00 0.00 72 1017.4
20180923191136 82 13 2.0 5.0 0.00 0.00 0.00 71 1017.4
20180923190635 83 285 1.0 1.0 0.00 0.00 0.00 70 1017.8
20180923190134 83 273 0.0 1.0 0.00 0.00 0.00 71 1017.8
20180923185632 84 294 0.0 1.0 0.00 0.00 0.00 70 1017.8
20180923185131 84 42 1.0 1.0 0.00 0.00 0.00 68 1017.8
20180923184630 84 123 0.0 1.0 0.00 0.00 0.00 69 1017.8
20180923184129 84 215 0.0 1.0 0.00 0.00 0.00 68 1017.8
20180923183628 84 219 1.0 3.0 0.00 0.00 0.00 67 1017.8
20180923183127 84 252 0.0 3.0 0.00 0.00 0.00 67 1017.8
20180923182626 84 336 1.0 5.0 0.00 0.00 0.00 67 1018.1
20180923182125 84 6 2.0 5.0 0.00 0.00 0.00 66 1018.1
20180923181624 84 33 2.0 5.0 0.00 0.00 0.00 67 1018.1
20180923181123 83 18 3.0 5.0 0.00 0.00 0.00 66 1018.1
20180923180621 83 13 2.0 4.0 0.00 0.00 0.00 66 1018.1
20180923180121 83 82 2.0 4.0 0.00 0.00 0.00 70 1018.1
20180923175619 82 17 2.0 4.0 0.00 0.00 0.00 67 1018.5
20180923175118 82 23 1.0 5.0 0.00 0.00 0.00 71 1018.5
20180923174617 83 1 2.0 5.0 0.00 0.00 0.00 68 1018.5
20180923174117 83 358 2.0 4.0 0.00 0.00 0.00 69 1018.5
20180923173616 83 13 1.0 3.0 0.00 0.00 0.00 69 1018.5
20180923173115 83 134 0.0 3.0 0.00 0.00 0.00 65 1018.5
20180923172614 82 357 1.0 4.0 0.00 0.00 0.00 69 1018.5
20180923172113 82 7 1.0 4.0 0.00 0.00 0.00 68 1018.5
20180923171612 83 8 3.0 4.0 0.00 0.00 0.00 68 1018.8
20180923171111 83 139 0.0 2.0 0.00 0.00 0.00 69 1018.8
20180923170610 83 131 1.0 2.0 0.00 0.00 0.00 67 1018.8
20180923170109 83 142 1.0 4.0 0.00 0.00 0.00 66 1018.8
20180923165608 84 236 1.0 4.0 0.00 0.00 0.00 65 1018.8
20180923165107 84 120 2.0 6.0 0.00 0.00 0.00 64 1018.8
20180923164606 85 82 2.0 7.0 0.00 0.00 0.00 63 1018.8
20180923164105 84 123 1.0 8.0 0.00 0.00 0.00 66 1018.8
20180923163604 84 137 2.0 9.0 0.00 0.00 0.00 67 1018.8
20180923163102 84 205 4.0 10.0 0.00 0.00 0.00 64 1018.8
20180923162601 83 133 1.0 10.0 0.00 0.00 0.00 66 1018.8
20180923162100 82 198 2.0 5.0 0.00 0.00 0.00 71 1018.8
20180923161559 82 135 2.0 5.0 0.00 0.00 0.00 71 1019.1
20180923161058 81 193 2.0 5.0 0.00 0.00 0.00 71 1019.1
20180923160557 81 280 2.0 5.0 0.00 0.00 0.00 71 1019.1
20180923160056 82 137 2.0 5.0 0.00 0.00 0.00 70 1019.1
20180923155555 82 130 2.0 4.0 0.00 0.00 0.00 69 1019.1
20180923155054 82 114 0.0 3.0 0.00 0.00 0.00 72 1019.1
20180923154553 81 236 1.0 5.0 0.00 0.00 0.00 75 1019.1
20180923154051 81 205 0.0 5.0 0.00 0.00 0.00 76 1019.5
20180923153549 80 8 2.0 4.0 0.00 0.00 0.00 75 1019.1
20180923153049 80 293 1.0 4.0 0.00 0.00 0.00 75 1019.5
20180923152548 79 189 1.0 4.0 0.00 0.00 0.00 76 1019.5
20180923152047 78 157 1.0 3.0 0.00 0.00 0.00 82 1019.5
20180923151545 77 102 1.0 3.0 0.00 0.00 0.00 82 1019.5
20180923151043 76 156 2.0 3.0 0.00 0.00 0.00 81 1019.5
20180923150543 75 15 0.0 3.0 0.00 0.00 0.00 84 1019.5
20180923150042 75 322 1.0 3.0 0.00 0.00 0.00 85 1019.5
20180923145541 75 28 1.0 2.0 0.00 0.00 0.00 85 1019.5
20180923145039 74 345 1.0 2.0 0.00 0.00 0.00 88 1019.5
20180923144534 74 345 1.0 3.0 0.00 0.00 0.00 89 1019.5
20180923144033 74 338 1.0 3.0 0.00 0.00 0.00 88 1019.5
20180923143532 73 325 2.0 4.0 0.00 0.00 0.00 88 1019.5
20180923143031 73 27 1.0 4.0 0.00 0.00 0.00 89 1019.5
20180923142530 73 337 2.0 5.0 0.00 0.00 0.00 90 1019.5
20180923142028 73 332 4.0 5.0 0.00 0.00 0.00 90 1019.5
20180923141528 73 330 3.0 5.0 0.00 0.00 0.00 90 1019.5
20180923141027 73 0 2.0 5.0 0.00 0.00 0.00 91 1019.5
20180923140526 73 338 3.0 5.0 0.00 0.00 0.00 91 1019.5
20180923140025 73 340 1.0 3.0 0.00 0.00 0.00 91 1019.5
20180923135524 72 331 2.0 3.0 0.00 0.00 0.00 92 1019.5
20180923135023 72 340 0.0 6.0 0.00 0.00 0.00 92 1019.5
20180923134522 72 4 3.0 6.0 0.00 0.00 0.00 91 1019.1
20180923134021 72 333 2.0 6.0 0.00 0.00 0.00 92 1019.1
20180923133520 72 353 2.0 6.0 0.00 0.00 0.00 92 1019.1
20180923133018 72 350 4.0 6.0 0.00 0.00 0.00 92 1019.1
20180923132518 72 340 3.0 6.0 0.00 0.00 0.00 93 1019.1
20180923132016 71 353 3.0 6.0 0.00 0.00 0.00 93 1019.1
20180923131516 71 341 1.0 3.0 0.00 0.00 0.00 94 1018.8
20180923131013 71 335 2.0 3.0 0.00 0.00 0.00 93 1018.8
20180923130512 71 354 1.0 1.0 0.00 0.00 0.00 94 1018.8
20180923130011 71 4 0.0 1.0 0.00 0.00 0.00 94 1018.8
20180923125509 71 3 0.0 1.0 0.00 0.00 0.00 95 1018.8
20180923125009 70 5 1.0 1.0 0.00 0.00 0.00 95 1018.8
20180923124508 70 5 0.0 1.0 0.00 0.00 0.00 95 1018.8
20180923124007 70 4 0.0 1.0 0.00 0.00 0.00 95 1018.5
20180923123506 70 4 0.0 1.0 0.00 0.00 0.00 95 1018.5
20180923123005 70 5 0.0 1.0 0.00 0.00 0.00 95 1018.5
20180923122503 70 5 1.0 1.0 0.00 0.00 0.00 95 1018.5
20180923122002 69 5 0.0 0.0 0.00 0.00 0.00 95 1018.5
20180923121501 69 4 0.0 0.0 0.00 0.00 0.00 95 1018.5
20180923120959 69 4 0.0 0.0 0.00 0.00 0.00 95 1018.1
20180923120510 69 5 0.0 0.0 0.00 0.00 0.00 95 1018.1
20180923115958 69 5 0.0 0.0 0.00 0.00 0.00 95 1018.1
20180923115457 69 5 0.0 0.0 0.00 0.00 0.00 95 1018.1
20180923114956 69 5 0.0 0.0 0.00 0.00 0.00 95 1018.1
20180923114455 69 4 0.0 0.0 0.00 0.00 0.00 95 1018.1
20180923113953 69 5 0.0 0.0 0.00 0.00 0.00 95 1018.1
20180923113452 69 5 0.0 0.0 0.00 0.00 0.00 95 1018.1
20180923112951 69 5 0.0 0.0 0.00 0.00 0.00 95 1018.1
20180923112450 69 4 0.0 0.0 0.00 0.00 0.00 95 1017.8
20180923111949 69 4 0.0 0.0 0.00 0.00 0.00 95 1017.8
20180923111448 69 4 0.0 0.0 0.00 0.00 0.00 95 1017.8
20180923110947 69 5 0.0 1.0 0.00 0.00 0.00 95 1017.8
20180923110446 69 4 0.0 1.0 0.00 0.00 0.00 95 1017.8
20180923105946 69 4 0.0 1.0 0.00 0.00 0.00 95 1017.8
20180923105444 69 5 0.0 1.0 0.00 0.00 0.00 95 1017.8
20180923104944 69 5 1.0 1.0 0.00 0.00 0.00 96 1017.8
20180923104442 69 4 0.0 1.0 0.00 0.00 0.00 96 1017.8
20180923103942 69 5 0.0 2.0 0.00 0.00 0.00 96 1017.8
20180923103441 69 0 1.0 2.0 0.00 0.00 0.00 96 1017.8
20180923102940 69 269 1.0 3.0 0.00 0.00 0.00 96 1017.8
20180923102439 69 34 2.0 4.0 0.00 0.00 0.00 96 1017.8
20180923101938 68 57 2.0 4.0 0.00 0.00 0.00 96 1017.4
20180923101437 68 60 2.0 3.0 0.00 0.00 0.00 96 1017.8
20180923100936 68 34 0.0 0.0 0.00 0.00 0.00 96 1017.8
20180923100435 68 34 0.0 0.0 0.00 0.00 0.00 96 1017.8
20180923095934 68 34 0.0 0.0 0.00 0.00 0.00 96 1017.8
20180923095433 68 34 0.0 1.0 0.00 0.00 0.00 96 1017.8
20180923094932 68 34 0.0 1.0 0.00 0.00 0.00 96 1017.8
20180923094431 68 34 0.0 1.0 0.00 0.00 0.00 96 1017.8
20180923093929 68 34 0.0 1.0 0.00 0.00 0.00 96 1017.8
20180923093430 68 34 0.0 0.0 0.00 0.00 0.00 96 1017.8
20180923092929 68 34 0.0 0.0 0.00 0.00 0.00 96 1017.8
20180923091931 67 34 0.0 0.0 0.00 0.00 0.00 96 1017.8
20180923091428 67 34 0.0 0.0 0.00 0.00 0.00 96 1017.8
20180923090924 67 34 0.0 0.0 0.00 0.00 0.00 96 1017.8
20180923090422 67 34 0.0 0.0 0.00 0.00 0.00 96 1017.8
20180923085921 67 34 0.0 0.0 0.00 0.00 0.00 96 1017.8
20180923085419 67 34 0.0 0.0 0.00 0.00 0.00 96 1017.8
20180923084919 67 34 0.0 0.0 0.00 0.00 0.00 96 1017.8
20180923084418 67 34 0.0 0.0 0.00 0.00 0.00 96 1017.8
20180923083917 67 34 0.0 0.0 0.00 0.00 0.00 96 1017.8
20180923083415 67 34 0.0 0.0 0.00 0.00 0.00 96 1017.8
20180923082914 67 34 0.0 0.0 0.00 0.00 0.00 95 1017.8
20180923082413 67 34 0.0 0.0 0.00 0.00 0.00 95 1017.8
20180923081913 68 34 0.0 0.0 0.00 0.00 0.00 95 1017.8
20180923081411 68 34 0.0 0.0 0.00 0.00 0.00 95 1017.8
20180923080910 68 34 0.0 1.0 0.00 0.00 0.00 95 1017.8
20180923075908 68 34 0.0 1.0 0.00 0.00 0.00 95 1017.8
20180923075407 68 34 1.0 1.0 0.00 0.00 0.00 95 1017.8
20180923074905 68 34 0.0 1.0 0.00 0.00 0.00 95 1017.8
20180923074404 68 34 0.0 1.0 0.00 0.00 0.00 95 1017.8
20180923073903 68 34 0.0 1.0 0.00 0.00 0.00 95 1017.8
20180923073403 68 34 0.0 1.0 0.00 0.00 0.00 95 1017.8
20180923072901 68 11 0.0 0.0 0.00 0.00 0.00 95 1018.1
20180923072400 68 11 0.0 0.0 0.00 0.00 0.00 95 1018.1
20180923071859 68 12 0.0 0.0 0.00 0.00 0.00 95 1018.1
20180923071358 69 12 0.0 0.0 0.00 0.00 0.00 95 1018.1
20180923070857 69 11 0.0 0.0 0.00 0.00 0.00 95 1017.8
20180923070356 69 12 0.0 0.0 0.00 0.00 0.00 95 1017.8
20180923065855 69 12 0.0 0.0 0.00 0.00 0.00 95 1017.8
20180923065353 69 12 0.0 0.0 0.00 0.00 0.00 95 1017.8
20180923064852 69 11 0.0 0.0 0.00 0.00 0.00 95 1018.1
20180923064352 69 11 0.0 0.0 0.00 0.00 0.00 95 1018.1
20180923063851 69 12 0.0 0.0 0.00 0.00 0.00 95 1018.1
20180923063350 69 12 0.0 0.0 0.00 0.00 0.00 95 1018.1
20180923062849 70 11 0.0 0.0 0.00 0.00 0.00 95 1018.1
20180923062348 70 11 0.0 0.0 0.00 0.00 0.00 95 1018.1
20180923061847 70 11 0.0 0.0 0.00 0.00 0.00 95 1018.1
20180923061346 70 12 0.0 0.0 0.00 0.00 0.00 95 1018.1
20180923060845 70 11 0.0 0.0 0.00 0.00 0.00 95 1018.1
20180923060344 70 12 0.0 0.0 0.00 0.00 0.00 95 1018.1
20180923055843 70 11 0.0 0.0 0.00 0.00 0.00 95 1018.1
20180923055342 70 11 0.0 0.0 0.00 0.00 0.00 95 1018.1
20180923054840 70 11 0.0 0.0 0.00 0.00 0.00 95 1018.1
20180923054339 70 12 0.0 0.0 0.00 0.00 0.00 95 1018.1
20180923053838 70 11 0.0 0.0 0.00 0.00 0.00 95 1018.1
20180923053337 70 12 0.0 0.0 0.00 0.00 0.00 95 1018.1
20180923052836 70 12 0.0 0.0 0.00 0.00 0.00 95 1018.1
20180923052334 70 12 0.0 0.0 0.00 0.00 0.00 95 1018.1
20180923051833 70 12 0.0 0.0 0.00 0.00 0.00 95 1018.5
20180923051332 70 12 0.0 0.0 0.00 0.00 0.00 95 1018.5
20180923050830 70 11 0.0 0.0 0.00 0.00 0.00 95 1018.5
20180923050329 70 12 0.0 0.0 0.00 0.00 0.00 95 1018.5
20180923045828 70 11 0.0 0.0 0.00 0.00 0.00 95 1018.5
20180923045327 70 11 0.0 0.0 0.00 0.00 0.00 95 1018.5
20180923044826 70 12 0.0 0.0 0.00 0.00 0.00 95 1018.5
20180923044325 70 11 0.0 0.0 0.00 0.00 0.00 95 1018.5
20180923043824 70 12 0.0 0.0 0.00 0.00 0.00 95 1018.5
20180923043323 70 12 0.0 0.0 0.00 0.00 0.00 95 1018.5
20180923042822 70 12 0.0 0.0 0.00 0.00 0.00 95 1018.5
20180923042321 70 12 0.0 0.0 0.00 0.00 0.00 95 1018.5
20180923041820 70 12 0.0 0.0 0.00 0.00 0.00 95 1018.5
20180923041319 70 12 0.0 0.0 0.00 0.00 0.00 95 1018.5
20180923040818 70 12 0.0 0.0 0.00 0.00 0.00 94 1018.5
20180923040317 70 12 0.0 0.0 0.00 0.00 0.00 94 1018.5
20180923035816 70 11 0.0 0.0 0.00 0.00 0.00 94 1018.5
20180923035315 70 11 0.0 0.0 0.00 0.00 0.00 94 1018.5
20180923034814 70 12 0.0 0.0 0.00 0.00 0.00 94 1018.5
20180923034313 70 11 0.0 0.0 0.00 0.00 0.00 94 1018.5
20180923033812 70 11 0.0 0.0 0.00 0.00 0.00 94 1018.5
20180923033311 71 12 0.0 0.0 0.00 0.00 0.00 94 1018.5
20180923032810 71 11 0.0 0.0 0.00 0.00 0.00 94 1018.5
20180923032309 71 12 0.0 0.0 0.00 0.00 0.00 94 1018.5
20180923031808 71 12 0.0 0.0 0.00 0.00 0.00 94 1018.5
20180923031307 71 12 0.0 0.0 0.00 0.00 0.00 94 1018.1
20180923030806 71 12 0.0 0.0 0.00 0.00 0.00 94 1018.1
20180923030305 71 12 0.0 0.0 0.00 0.00 0.00 94 1018.1
20180923025804 71 12 0.0 0.0 0.00 0.00 0.00 94 1018.1
20180923025303 71 12 0.0 0.0 0.00 0.00 0.00 94 1018.1
20180923024802 71 11 0.0 0.0 0.00 0.00 0.00 94 1018.1
20180923024301 71 11 0.0 0.0 0.00 0.00 0.00 94 1018.1
20180923023800 71 12 0.0 1.0 0.00 0.00 0.00 94 1018.1
20180923023259 71 11 0.0 1.0 0.00 0.00 0.00 93 1018.1
20180923022758 71 12 0.0 1.0 0.00 0.00 0.00 93 1018.1
20180923022257 71 12 0.0 0.0 0.00 0.00 0.00 93 1018.1
20180923021756 72 12 0.0 0.0 0.00 0.00 0.00 93 1018.1
20180923021254 72 12 0.0 0.0 0.00 0.00 0.00 93 1018.1
20180923020753 72 11 0.0 0.0 0.00 0.00 0.00 93 1018.1
20180923020252 72 11 0.0 0.0 0.00 0.00 0.00 93 1017.8
20180923015751 72 11 0.0 0.0 0.00 0.00 0.00 93 1018.1
20180923015250 72 11 0.0 0.0 0.00 0.00 0.00 92 1017.8
20180923014748 72 12 0.0 0.0 0.00 0.00 0.00 92 1017.8
20180923014247 73 11 0.0 0.0 0.00 0.00 0.00 92 1018.1
20180923013746 73 11 0.0 0.0 0.00 0.00 0.00 92 1017.8
20180923013245 73 11 0.0 0.0 0.00 0.00 0.00 91 1018.1
20180923012744 73 12 0.0 0.0 0.00 0.00 0.00 91 1017.8
20180923012243 73 12 0.0 0.0 0.00 0.00 0.00 91 1018.1
20180923011742 73 12 0.0 0.0 0.00 0.00 0.00 90 1017.8
20180923011241 74 12 0.0 1.0 0.00 0.00 0.00 90 1017.8
20180923010740 74 12 0.0 1.0 0.00 0.00 0.00 90 1017.8
20180923010239 74 11 0.0 1.0 0.00 0.00 0.00 89 1017.8
20180923005738 74 12 1.0 1.0 0.00 0.00 0.00 89 1017.8
20180923005237 74 16 1.0 1.0 0.00 0.00 0.00 90 1017.8
20180923004736 74 359 0.0 1.0 0.00 0.00 0.00 90 1017.8
20180923004235 73 359 1.0 1.0 0.00 0.00 0.00 91 1017.4
20180923003734 73 4 0.0 1.0 0.00 0.00 0.00 91 1017.4
20180923003233 73 75 0.0 1.0 0.00 0.00 0.00 90 1017.4
20180923002731 73 75 0.0 1.0 0.00 0.00 0.00 89 1017.4
20180923002230 73 75 0.0 1.0 0.00 0.00 0.00 89 1017.4
20180923001729 73 132 0.0 0.0 0.00 0.00 0.00 89 1017.4
20180923001228 73 132 0.0 0.0 0.00 0.00 0.00 89 1017.1
20180923000729 74 132 0.0 0.0 0.00 0.00 0.00 89 1017.1
20180923000226 74 132 0.0 0.0 0.00 0.00 0.00 89 1016.8
20180922235726 74 132 0.0 0.0 0.00 0.00 0.00 88 1016.8
20180922235225 74 132 0.0 0.0 0.00 0.00 0.00 88 1016.8
20180922234723 74 133 0.0 0.0 0.00 0.00 0.00 87 1016.8
20180922234223 75 133 0.0 0.0 0.00 0.00 0.00 86 1016.8